Location: Byszew
(52.1813°N, 19.2693°E)
Time: 17:15:38
(UTC+00:00)

Cosmos 2123 Rocket - Pass Details

Date: 03 March 2021
Orbit: 960 x 993 km, 82.9° (Epoch: 16 April)

Event Time Altitude Azimuth Distance (km) Brightness Sun altitude
Rises 19:07:05 0° 351° (N) 3,702 7.5 -25.0°
Reaches altitude 10° 19:09:43 10° 357° (N) 2,745 6.7 -25.3°
Enters shadow 19:15:32 51° 63° (ENE) 1,212 4.2 -26.1°
